This demonstration page uses our WeatherBlox Daily Observations layout. Learn more.

Left ArrowRight Arrow

38.89511, -77.03637

Hourly Observations for May 24, 2018

Temp ( °F °C ) Dew Point ( °F °C ) Humidity (%) Winds ( mph kmh ) Pressure ( in mb ) Visibility ( mi km ) Precip ( " mm )
12:52 am 00:52 Mostly Clear 67 19.4 58 14.4 73 73 Calm 30.11 1020 10 16 0.00 0.00
1:52 am 01:52 Partly Cloudy 66 18.9 60 15.6 81 81 SSE 3 6 30.11 1020 10 16 0.00 0.00
2:52 am 02:52 Clear 65 18.3 61 16.1 87 87 S 6 9 30.11 1020 10 16 0.00 0.00
3:52 am 03:52 Clear 65 18.3 58 14.4 78 78 ENE 5 7 30.11 1020 10 16 0.00 0.00
4:52 am 04:52 Clear 65 18.3 57 13.9 76 76 N 5 7 30.12 1020 10 16 0.00 0.00
5:52 am 05:52 Mostly Sunny 64 17.8 56 13.3 75 75 N 7 11 30.14 1021 10 16 0.00 0.00
6:52 am 06:52 Mostly Sunny 65 18.3 56 13.3 73 73 NNW 12 19 30.16 1021 10 16 0.00 0.00
7:52 am 07:52 Mostly Sunny 69 20.6 56 13.3 63 63 NNW 8 13 30.18 1022 10 16 0.00 0.00
8:52 am 08:52 Sunny 73 22.8 57 13.9 57 57 NNW 9 15 30.19 1022 10 16 0.00 0.00
9:52 am 09:52 Sunny 77 25 52 11.1 42 42 N 8 13 30.19 1022 10 16 0.00 0.00
10:52 am 10:52 Sunny 79 26.1 49 9.4 35 35 NE 5 7 30.19 1022 10 16 0.00 0.00
11:52 am 11:52 Sunny 81 27.2 50 10 34 34 NNE 8 13 30.19 1022 10 16 0.00 0.00
12:52 pm 12:52 Sunny 82 27.8 53 11.7 37 37 ENE 8 13 30.19 1022 10 16 0.00 0.00
1:52 pm 13:52 Sunny 84 28.9 48 8.9 29 29 VRB 3 6 30.17 1022 10 16 0.00 0.00
2:52 pm 14:52 Sunny 85 29.4 44 6.7 24 24 Calm 30.16 1021 10 16 0.00 0.00
3:52 pm 15:52 Sunny 86 30 44 6.7 23 23 Calm 30.14 1021 10 16 0.00 0.00
4:52 pm 16:52 Sunny 86 30 41 5 20 20 E 3 6 30.13 1020 10 16 0.00 0.00
5:52 pm 17:52 Sunny 82 27.8 52 11.1 35 35 S 7 11 30.11 1020 10 16 0.00 0.00
6:52 pm 18:52 Sunny 81 27.2 52 11.1 37 37 S 8 13 30.11 1020 10 16 0.00 0.00
7:52 pm 19:52 Sunny 75 23.9 58 14.4 55 55 SSE 9 15 30.11 1020 10 16 0.00 0.00
8:52 pm 20:52 Mostly Clear 74 23.3 56 13.3 54 54 SSE 5 7 30.13 1020 10 16 0.00 0.00
9:52 pm 21:52 Clear 72 22.2 56 13.3 57 57 SSW 9 15 30.14 1021 10 16 0.00 0.00
10:52 pm 22:52 Clear 70 21.1 59 15 68 68 S 7 11 30.14 1021 10 16 0.00 0.00
11:52 pm 23:52 Clear 70 21.1 60 15.6 71 71 Calm 30.14 1021 10 16 0.00 0.00

Powered by AerisWeather